York, NE

1:58 PM CDT on August 29, 2016 (GMT -0500)
York Municipal

Weather History for KJYR - May, 2013

Change the Weather History Date:

Sunday, May 5, 2013

  Actual Average Record
Temperature  
Mean Temperature 49 °F -  
Max Temperature 59 °F 72 °F 95 °F (2004)
Min Temperature 39 °F 48 °F 30 °F (1954)
Degree Days  
Heating Degree Days 16    
Moisture  
Dew Point 42 °F    
Average Humidity 83    
Maximum Humidity 100    
Minimum Humidity 63    
Precipitation  
Precipitation 0.00 in - - ()
Sea Level Pressure  
Sea Level Pressure 30.16 in    
Wind  
Wind Speed 11 mph (North)    
Max Wind Speed 17 mph    
Max Gust Speed 22 mph    
Visibility 10 miles    
Events      
Averages and records for this station are not official NWS values.
T = Trace of Precipitation, MM = Missing Value Source: NWS Daily Summary

Daily Weather History Graph

Daily Weather History Graph

Search for Another Location

Airport or City:

Trip Planner

Search our weather history database for the weather conditions in past years. The results will help you decide how hot, cold, wet, or windy it might be!

Date:

Astronomy

May. 05, 2013 Rise Set
Actual Time 6:23 AM CDT 8:31 PM CDT
Civil Twilight 5:53 AM CDT 9:01 PM CDT
Nautical Twilight 5:16 AM CDT 9:39 PM CDT
Astronomical Twilight 4:35 AM CDT 10:19 PM CDT
Moon 3:56 AM CDT (5/5) 4:30 PM CDT (5/5)
Length of Visible Light 15h 08m
Length of Day
14h 08m
Waning Crescent, 18% of the Moon is Illuminated
May 5
Waning Crescent
May 9
New
May 17
First Quarter
May 24
Full
May 31
Last Quarter

Hourly Weather History & Observations

Time (CDT) Temp. Windchill Dew Point Humidity Pressure Visibility Wind Dir Wind Speed Gust Speed Precip Events Conditions
12:15 AM 41.0 °F 33.5 °F 39.2 °F 93% 30.17 in 10.0 mi North 13.8 mph 21.9 mph N/A   Overcast
12:35 AM 41.0 °F 34.3 °F 39.2 °F 93% 30.17 in 10.0 mi North 11.5 mph 20.7 mph N/A   Overcast
12:55 AM 41.0 °F 34.3 °F 39.2 °F 93% 30.17 in 10.0 mi North 11.5 mph 19.6 mph N/A   Overcast
1:15 AM 41.0 °F 34.3 °F 37.4 °F 87% 30.17 in 10.0 mi North 11.5 mph 18.4 mph N/A   Overcast
1:35 AM 41.0 °F 33.5 °F 37.4 °F 87% 30.17 in 10.0 mi North 13.8 mph 20.7 mph N/A   Overcast
1:55 AM 41.0 °F 33.1 °F 37.4 °F 87% 30.17 in 10.0 mi North 15.0 mph - N/A   Overcast
2:15 AM 41.0 °F 32.8 °F 39.2 °F 93% 30.16 in 10.0 mi North 16.1 mph - N/A   Overcast
2:35 AM 41.0 °F 33.5 °F 39.2 °F 93% 30.16 in 10.0 mi North 13.8 mph - N/A   Overcast
2:55 AM 41.0 °F 33.9 °F 39.2 °F 93% 30.15 in 10.0 mi North 12.7 mph - N/A   Overcast
3:15 AM 41.0 °F 34.7 °F 39.2 °F 93% 30.14 in 10.0 mi North 10.4 mph - N/A   Overcast
3:35 AM 39.2 °F 31.6 °F 39.2 °F 100% 30.15 in 10.0 mi North 12.7 mph 19.6 mph N/A   Overcast
3:55 AM 39.2 °F 33.6 °F 39.2 °F 100% 30.15 in 10.0 mi North 8.1 mph - N/A   Overcast
4:15 AM 39.2 °F 32.5 °F 39.2 °F 100% 30.16 in 10.0 mi North 10.4 mph - N/A   Overcast
4:35 AM 39.2 °F 33.0 °F 39.2 °F 100% 30.15 in 10.0 mi North 9.2 mph - N/A   Overcast
4:55 AM 39.2 °F 33.0 °F 37.4 °F 93% 30.16 in 10.0 mi North 9.2 mph - N/A   Overcast
5:15 AM 39.2 °F 33.6 °F 37.4 °F 93% 30.16 in 10.0 mi North 8.1 mph - N/A   Overcast
5:35 AM 39.2 °F 34.2 °F 37.4 °F 93% 30.16 in 10.0 mi North 6.9 mph - N/A   Overcast
5:55 AM 39.2 °F 33.6 °F 37.4 °F 93% 30.16 in 10.0 mi North 8.1 mph - N/A   Overcast
6:15 AM 39.2 °F 34.2 °F 37.4 °F 93% 30.17 in 10.0 mi North 6.9 mph - N/A   Overcast
6:35 AM 39.2 °F 33.6 °F 37.4 °F 93% 30.17 in 10.0 mi North 8.1 mph - N/A   Overcast
6:55 AM 39.2 °F 33.6 °F 37.4 °F 93% 30.18 in 10.0 mi North 8.1 mph - N/A   Overcast
7:15 AM 41.0 °F 35.2 °F 39.2 °F 93% 30.18 in 10.0 mi North 9.2 mph - N/A   Overcast
7:35 AM 41.0 °F 35.2 °F 37.4 °F 87% 30.18 in 10.0 mi North 9.2 mph - N/A   Overcast
7:55 AM 41.0 °F 34.3 °F 37.4 °F 87% 30.18 in 10.0 mi North 11.5 mph 19.6 mph N/A   Overcast
8:15 AM 41.0 °F 33.1 °F 39.2 °F 93% 30.18 in 10.0 mi North 15.0 mph 20.7 mph N/A   Overcast
8:35 AM 41.0 °F 33.9 °F 39.2 °F 93% 30.19 in 10.0 mi North 12.7 mph 21.9 mph N/A   Overcast
9:15 AM 41.0 °F 32.5 °F 39.2 °F 93% 30.20 in 10.0 mi North 17.3 mph 20.7 mph N/A   Overcast
9:35 AM 41.0 °F 32.5 °F 39.2 °F 93% 30.20 in 10.0 mi North 17.3 mph 20.7 mph N/A   Overcast
9:55 AM 42.8 °F 34.8 °F 39.2 °F 87% 30.19 in 10.0 mi North 17.3 mph 20.7 mph N/A   Overcast
10:15 AM 44.6 °F 37.2 °F 39.2 °F 81% 30.19 in 10.0 mi North 17.3 mph - N/A   Overcast
10:35 AM 44.6 °F 38.4 °F 41.0 °F 87% 30.19 in 10.0 mi North 12.7 mph - N/A   Overcast
10:55 AM 46.4 °F 40.7 °F 41.0 °F 81% 30.20 in 10.0 mi North 12.7 mph 19.6 mph N/A   Overcast
11:15 AM 46.4 °F 41.5 °F 41.0 °F 81% 30.20 in 10.0 mi North 10.4 mph 21.9 mph N/A   Overcast
11:35 AM 48.2 °F - 41.0 °F 76% 30.20 in 10.0 mi North 15.0 mph 20.7 mph N/A   Overcast
11:55 AM 48.2 °F - 41.0 °F 76% 30.20 in 10.0 mi North 15.0 mph 19.6 mph N/A   Overcast
12:15 PM 48.2 °F - 41.0 °F 76% 30.20 in 10.0 mi North 12.7 mph 17.3 mph N/A   Overcast
12:35 PM 48.2 °F - 41.0 °F 76% 30.20 in 10.0 mi North 15.0 mph 20.7 mph N/A   Overcast
12:55 PM 50.0 °F - 42.8 °F 76% 30.19 in 10.0 mi North 9.2 mph 17.3 mph N/A   Overcast
1:15 PM 50.0 °F - 42.8 °F 76% 30.19 in 10.0 mi North 10.4 mph 17.3 mph N/A   Overcast
1:35 PM 50.0 °F - 42.8 °F 76% 30.19 in 10.0 mi NNW 11.5 mph 16.1 mph N/A   Overcast
1:55 PM 50.0 °F - 42.8 °F 76% 30.18 in 10.0 mi North 10.4 mph 16.1 mph N/A   Overcast
2:15 PM 50.0 °F - 42.8 °F 76% 30.18 in 10.0 mi North 12.7 mph 18.4 mph N/A   Overcast
2:35 PM 50.0 °F - 44.6 °F 82% 30.17 in 10.0 mi North 12.7 mph 19.6 mph N/A   Overcast
2:55 PM 53.6 °F - 44.6 °F 72% 30.16 in 10.0 mi North 9.2 mph 16.1 mph N/A   Overcast
3:15 PM 53.6 °F - 44.6 °F 72% 30.16 in 10.0 mi North 11.5 mph 18.4 mph N/A   Mostly Cloudy
3:35 PM 53.6 °F - 44.6 °F 72% 30.15 in 10.0 mi NNW 10.4 mph 17.3 mph N/A   Overcast
3:55 PM 57.2 °F - 46.4 °F 67% 30.14 in 10.0 mi North 9.2 mph - N/A   Mostly Cloudy
4:15 PM 57.2 °F - 46.4 °F 67% 30.13 in 10.0 mi North 11.5 mph - N/A   Scattered Clouds
4:35 PM 57.2 °F - 46.4 °F 67% 30.13 in 10.0 mi NNE 9.2 mph 19.6 mph N/A   Overcast
4:55 PM 57.2 °F - 46.4 °F 67% 30.12 in 10.0 mi North 11.5 mph 16.1 mph N/A   Overcast
5:15 PM 59.0 °F - 46.4 °F 63% 30.12 in 10.0 mi North 8.1 mph 17.3 mph N/A   Mostly Cloudy
5:35 PM 57.2 °F - 46.4 °F 67% 30.12 in 10.0 mi NNE 11.5 mph 18.4 mph N/A   Mostly Cloudy
5:55 PM 57.2 °F - 46.4 °F 67% 30.12 in 10.0 mi North 6.9 mph 16.1 mph N/A   Mostly Cloudy
6:15 PM 57.2 °F - 46.4 °F 67% 30.12 in 10.0 mi North 10.4 mph - N/A   Scattered Clouds
6:35 PM 57.2 °F - 46.4 °F 67% 30.11 in 10.0 mi North 11.5 mph 17.3 mph N/A   Scattered Clouds
6:55 PM 57.2 °F - 46.4 °F 67% 30.12 in 10.0 mi North 8.1 mph 17.3 mph N/A   Mostly Cloudy
7:15 PM 55.4 °F - 46.4 °F 72% 30.12 in 10.0 mi North 8.1 mph - N/A   Overcast
7:35 PM 55.4 °F - 46.4 °F 72% 30.12 in 10.0 mi North 10.4 mph - N/A   Mostly Cloudy
7:55 PM 55.4 °F - 46.4 °F 72% 30.12 in 10.0 mi NNE 9.2 mph - N/A   Partly Cloudy
8:15 PM 53.6 °F - 46.4 °F 77% 30.12 in 10.0 mi North 9.2 mph - N/A   Scattered Clouds
8:35 PM 51.8 °F - 44.6 °F 76% 30.12 in 10.0 mi North 9.2 mph - N/A   Mostly Cloudy
8:55 PM 48.2 °F - 44.6 °F 87% 30.12 in 10.0 mi North 10.4 mph - N/A   Partly Cloudy
9:15 PM 48.2 °F - 44.6 °F 87% 30.13 in 10.0 mi North 9.2 mph - N/A   Clear
9:55 PM 48.2 °F - 44.6 °F 87% 30.14 in 10.0 mi NNE 5.8 mph - N/A   Overcast
10:15 PM 48.2 °F - 44.6 °F 87% 30.15 in 10.0 mi NNE 3.5 mph - N/A   Overcast
10:35 PM 48.2 °F - 44.6 °F 87% 30.16 in 10.0 mi NE 3.5 mph - N/A   Overcast
10:55 PM 48.2 °F - 44.6 °F 87% 30.16 in 10.0 mi NNE 3.5 mph - N/A   Overcast
11:15 PM 48.2 °F - 44.6 °F 87% 30.16 in 10.0 mi Calm Calm - N/A   Overcast
11:35 PM 48.2 °F - 44.6 °F 87% 30.16 in 10.0 mi Calm Calm - N/A   Overcast
11:55 PM 46.4 °F - 44.6 °F 93% 30.16 in 10.0 mi Calm Calm - N/A   Overcast